Regional Weather Roundup
Issued by NWS Northern Indiana

Home | Current Version | Previous Version | Text Only | Print | Product List | Glossary On
Versions: 1 2 3 4 5 6 7 8 9 10 11 12 13 14 15 16 17 18 19 20 21 22 23 24 25 26 27 28 29 30 31 32 33 34 35 36 37 38 39 40 41 42 43 44 45 46 47 48 49 50
000
ASUS43 KIWX 041710
RWRIWX

KIWX WEATHER ROUNDUP
NATIONAL WEATHER SERVICE NORTHERN INDIANA
1200 PM EST WED MAR 04 2015

NOTE: "FAIR" INDICATES FEW OR NO CLOUDS BELOW 12,000 FEET WITH NO
SIGNIFICANT WEATHER AND/OR OBSTRUCTIONS TO VISIBILITY.

* THESE STATIONS ARE NOT UNDER NWS QUALITY CONTROL. THEY ALSO MAY NOT
  REPORT WEATHER SUCH AS PRECIPITATION OR FOG.

INZ001>027-041800-
NORTHERN INDIANA

CITY           SKY/WX    TMP DP  RH WIND       PRES   REMARKS
GARY*          CLOUDY    25  10  54 W12       30.12R WCI  14
VALPARAISO     CLOUDY    23  15  71 NW13      30.09R WCI  11
MICHIGAN CITY* CLOUDY    23  10  58 NW8G16    30.11R WCI  14
LAPORTE*       PTSUNNY   26  15  65 NW16      30.08R WCI  13
KNOX*            N/A     27  10  50 NW14      30.07R WCI  15
SOUTH BEND     CLOUDY    25  16  68 NW14      30.06R WCI  13
ELKHART*       CLOUDY    27  16  63 NW12      30.04R WCI  16
GOSHEN         CLOUDY    28  20  71 W14       30.01S WCI  17
MONTICELLO*    CLOUDY    22  17  81 NW12      30.07R WCI  11
LOGANSPORT*    CLOUDY    27  21  80 NW8       30.07R WCI  18
ROCHESTER*     CLOUDY    32  25  74 NW10      30.05R WCI  24
WARSAW*        CLOUDY    30  21  69 NW13      30.02R WCI  20
ANGOLA*        MOSUNNY   28  18  64 NW13      29.98S WCI  18
FORT WAYNE     CLOUDY    33  23  66 NW9       30.01R WCI  25
HUNTINGTON*    CLOUDY    32  20  63 NW7       30.02R WCI  25
PERU/GRISSOM   CLOUDY    29  23  79 NW15      30.03R WCI  17
MARION*        CLOUDY    30  26  83 W14       30.02S WCI  20

$$
INZ028>050-041800-
CENTRAL INDIANA

CITY           SKY/WX    TMP DP  RH WIND       PRES   REMARKS
LAFAYETTE      CLOUDY    20  15  81 NW14      30.10R WCI   7
KOKOMO*        CLOUDY    28  25  86 W15       30.03S WCI  17
MUNCIE*        CLOUDY    31  25  78 NW10      30.02R HAZE    WCI  22
INDIANAPOLIS   CLOUDY    29  23  78 NW12      30.03R WCI  19

$$
MIZ043>046-050>051-056>058-064>065-071>073-077>080-041800-
SOUTHWEST LOWER MICHIGAN

CITY           SKY/WX    TMP DP  RH WIND       PRES   REMARKS
BATTLE CREEK   MOSUNNY   28  15  58 W13       29.98S WCI  17
BENTON HARBOR  CLOUDY    22  14  71 NW13G21   30.07R WCI  10
COLDWATER*     PTSUNNY   28  18  64 W9        29.98R WCI  19
HILLSDALE*     PTSUNNY   30  21  69 W12G17    29.95R WCI  20
HOLLAND        CLOUDY    22  11  62 NW17G23   30.05R WCI   8
GRAND RAPIDS   PTSUNNY   24  12  60 W14       30.00R WCI  12
KALAMAZOO      PTSUNNY   27  15  61 W14       30.00R WCI  16
STURGIS*       CLOUDY    28  19  69 NW10G17   30.00R WCI  19
THREE RIVERS*  CLOUDY    27  18  67 NW12G18   30.02R WCI  17

$$
OHZ001>008-015>018-024>025-041800-
NORTHWEST OHIO

CITY           SKY/WX    TMP DP  RH WIND       PRES   REMARKS
WAUSEON*       CLOUDY    32  23  69 W15       29.97R WCI  22
DEFIANCE       CLOUDY    34  23  64 W9        29.99R WCI  27
FINDLAY        CLOUDY    33  26  75 W9        29.97R WCI  25
TOLEDO EXPRESS CLOUDY    33  22  63 W9        29.96S WCI  25
TOLEDO METCALF CLOUDY    35  22  58 W13       29.98R WCI  26
LIMA           CLOUDY    33  25  72 NW9       29.98R WCI  25

$$
AND FOR LAKE MICHIGAN COASTAL AND OPEN LAKE BUOY OBSERVATIONS

STATION/POSITION TEMP    WIND        PRES    VSBY  WAVE
                 AIR SEA DIR/SP/G                  HT/PER
                 (F)     (DEG/KT/KT) (MB)    (MI)  (FT/S)
CALUMET HARBOR    21     290/  9/ 13 1018.5R
MICHIGAN CITY     22     300/ 12/ 15   N/A
SAINT JOSEPH      22     300/ 13/ 17 1019.6R

$$
&&


USA.gov is the U.S. government's official web portal to all federal, state and local government web resources and services.